Location: Krakow
(50.0830°N, 19.9170°E)
Time: 22:56:38
(UTC+01:00)

Courier 1B Rocket - Pass Details

Date: 17 December 2023
Orbit: 920 x 1202 km, 28.2° (Epoch: 24 February)

Event Time Altitude Azimuth Distance (km) Brightness Sun altitude
Rises 08:45:28 0° 230° (SW) 4,050 8.2 7.4°
Reaches altitude 10° 08:50:28 10° 203° (SSW) 3,039 8.0 7.9°
Maximum altitude 08:53:11 12° 182° (S) 2,838 8.4 8.2°
Drops below altitude 10° 08:55:52 10° 160° (SSE) 2,970 9.4 8.4°
Sets 09:00:37 0° 132° (SE) 3,856 10.1 8.9°
